This demonstration page uses our WeatherBlox Daily Observations layout. Learn more.

Left ArrowRight Arrow

Hourly Observations for June 9, 2018

Temp ( °F °C ) Dew Point ( °F °C ) Humidity (%) Winds ( mph kmh ) Pressure ( in mb ) Visibility ( mi km ) Precip ( " mm )
12:53 am 00:53 Clear 65 18.3 49 9.4 56 56 Calm 29.82 1010 10 16 0.00 0.00
1:53 am 01:53 Clear 57 13.9 50 10 78 78 Calm 29.81 1010 10 16 0.00 0.00
2:53 am 02:53 Clear 55 12.8 51 10.6 87 87 Calm 29.80 1009 10 16 0.00 0.00
3:53 am 03:53 Clear 56 13.3 52 11.1 87 87 ENE 5 7 29.78 1009 10 16 0.00 0.00
4:53 am 04:53 Clear 57 13.9 53 11.7 87 87 NE 8 13 29.76 1008 10 16 0.00 0.00
5:53 am 05:53 Sunny 59 15 52 11.1 78 78 ENE 10 17 29.75 1008 10 16 0.00 0.00
6:53 am 06:53 Sunny 63 17.2 55 12.8 76 76 ENE 9 15 29.73 1007 10 16 0.00 0.00
7:53 am 07:53 Mostly Sunny 67 19.4 57 13.9 71 71 E 8 13 29.71 1006 10 16 0.00 0.00
8:53 am 08:53 Sunny 72 22.2 59 15 64 64 ENE 8 13 29.70 1006 10 16 0.00 0.00
9:53 am 09:53 Sunny 78 25.6 60 15.6 54 54 E 10 17 29.68 1005 10 16 0.00 0.00
10:53 am 10:53 Sunny 84 28.9 59 15 43 43 E 8 13 29.64 1004 10 16 0.00 0.00
11:53 am 11:53 Sunny 90 32.2 45 7.2 21 21 SSE 9 15 29.61 1003 10 16 0.00 0.00
12:53 pm 12:53 Sunny 93 33.9 42 5.6 17 17 SSE 16 26 29.57 1001 10 16 0.00 0.00
1:53 pm 13:53 Sunny 93 33.9 46 7.8 20 20 SE 18 30 29.55 1001 10 16 0.00 0.00
2:53 pm 14:53 Sunny 93 33.9 50 10 23 23 SE 18 30 29.52 1000 10 16 0.00 0.00
3:53 pm 15:53 Sunny 93 33.9 48 8.9 21 21 ESE 24 39 29.46 998 10 16 0.00 0.00
4:53 pm 16:53 Sunny 93 33.9 49 9.4 22 22 SE 32 52 29.40 996 10 16 0.00 0.00
5:53 pm 17:53 Sunny 92 33.3 51 10.6 25 25 SE 29 46 29.41 996 10 16 0.00 0.00
6:53 pm 18:53 Sunny 87 30.6 54 12.2 32 32 SE 21 33 29.40 996 10 16 0.00 0.00
7:31 pm 19:31 Sunny 76 24.4 52 11.1 43 43 WNW 26 43 29.38 995 10 16 0.00 0.00
7:41 pm 19:41 Mostly Sunny 72 22.2 53 11.7 52 52 NW 22 35 29.38 995 10 16 0.00 0.00
7:53 pm 19:53 Sunny with Light Rain 69 20.6 55 12.8 61 61 NNW 18 30 29.48 998 10 16 0.00 0.03
8:32 pm 20:32 Partly Cloudy with Nearby Thunderstorms 66 19 57 14 73 73 NW 15 24 29.50 999 10 16 0.00 0.00
8:39 pm 20:39 Mostly Cloudy with Thunderstorms 65 18.3 59 15 81 81 WNW 14 22 29.53 1000 6 10 0.00 0.03
8:53 pm 20:53 Mostly Cloudy with Thunderstorms 64 17.8 59 15 84 84 N 8 13 29.56 1001 10 16 0.04 1.02
9:14 pm 21:14 Partly Cloudy with Nearby Thunderstorms 63 17 59 15 88 88 NW 13 20 29.53 1000 10 16 0.00 0.00
9:24 pm 21:24 Mostly Clear 63 17 59 15 88 88 WNW 12 19 29.53 1000 10 16 0.00 0.00
9:51 pm 21:51 Mostly Clear with Nearby Thunderstorms 63 17 59 15 88 88 SW 8 13 29.53 1000 10 16 0.00 0.03
9:53 pm 21:53 Mostly Clear with Nearby Thunderstorms 63 17.2 60 15.6 90 90 SSW 8 13 29.55 1001 10 16 0.00 0.03
10:01 pm 22:01 Partly Cloudy with Thunderstorms 63 17.2 60 15.6 90 90 SSW 12 19 29.53 1000 10 16 0.00 0.00
10:19 pm 22:19 Mostly Cloudy with Nearby Thunderstorms 62 16.7 60 15.6 93 93 W 8 13 29.50 999 10 16 0.00 0.00
10:39 pm 22:39 Mostly Cloudy 63 17.2 60 15.6 90 90 Calm 29.53 1000 10 16 0.00 0.00
10:53 pm 22:53 Partly Cloudy 63 17.2 60 15.6 90 90 S 5 7 29.54 1000 10 16 0.00 0.00
11:53 pm 23:53 Mostly Cloudy 62 16.7 59 15 90 90 SW 5 7 29.52 1000 10 16 0.00 0.00

Powered by AerisWeather